Flag for Pakistan Weather past 2 weeks in Peshawar, Pakistan

Now
91 °F

Hot.


Feels Like: 105 °F
Forecast: 82 / 94 °F
Wind: N/A

Location: Peshawar Airport

Current Time: Jul 24, 2014 at 10:29:16 AM

Latest Report: Jul 24, 2014 at 10:00 AM


Visibility: N/A

Pressure: 29.53 "Hg

Humidity: 63%

Dew point: 77 °F

Location of PeshawarLocation

Historic Weather in Peshawar — Graph

°F

Peshawar temperature yesterday

Maximum temperature yesterday: 104 °F (at 3:00 PM)
Minimum temperature yesterday: 88 °F (at 5:00 AM)
Average temperature yesterday: 97 °F

Past Weeks' High & Low Weather Summary

 TemperatureHumidityPressure
High106 °F (Jul 11, 4:00 PM)100% (Jul 11, 7:00 AM)29.59 "Hg (Jul 11, 7:00 AM)
Low37 °F (Jul 11, 7:00 AM)25% (Jul 10, 4:00 PM)29.33 "Hg (Jul 15, 6:00 PM)
Average92 °F53%29.45 "Hg
* Reported Jul 9 9:00 AM — Jul 24 9:00 AM, Peshawar, Weather by CustomWeather, © 2014

Note: Actual official high and low records may vary slightly from our data, if they occured in-between our weather recording intervals... More about our weather records

Advertising

Peshawar weather history for previous 24 hours

 ConditionsComfort  
Time TempWeatherWind HumidityBarometerVisibility
9:00 AM
Jul 24
91 °FHot.N/A63%29.53 "HgN/A
8:00 AM88 °FWarm.N/A66%29.50 "HgN/A
7:00 AM86 °FWarm.N/A75%29.47 "HgN/A
6:00 AM86 °FWarm.N/A75%29.45 "HgN/A
5:00 AM86 °FWarm.N/A75%29.45 "HgN/A
4:00 AM88 °FWarm.N/A75%29.45 "HgN/A
3:00 AM88 °FWarm.N/A75%29.45 "HgN/A
2:00 AM90 °FSleet. Overcast.N/A75%29.45 "HgN/A
1:00 AM91 °FHot.N/A67%29.47 "HgN/A
12:00 AM91 °FHot.N/A67%29.47 "HgN/A
11:00 PM
Jul 23
93 °FExtremely hot.N/A63%29.45 "HgN/A
10:00 PM97 °FExtremely hot.N/A60%29.42 "HgN/A
9:00 PM99 °FExtremely hot.N/A57%29.42 "HgN/A
8:00 PM99 °FExtremely hot.N/A53%29.39 "HgN/A
7:00 PM100 °FExtremely hot.N/A50%29.36 "HgN/A
6:00 PM102 °FExtremely hot.N/A48%29.36 "HgN/A
5:00 PM104 °FExtremely hot.N/A45%29.36 "HgN/A
4:00 PM104 °FExtremely hot.N/A45%29.36 "HgN/A
3:00 PM104 °FExtremely hot.N/A48%29.39 "HgN/A
2:00 PM102 °FExtremely hot.N/A51%29.42 "HgN/A
1:00 PM100 °FExtremely hot.N/A53%29.45 "HgN/A
11:00 AM97 °FExtremely hot.N/A56%29.47 "HgN/A
10:00 AM95 °FExtremely hot.N/A60%29.47 "HgN/A
Weather by CustomWeather, © 2014

See weather overviewHow to use our weather pages